Time,TemperatureF,DewpointF,PressureIn,WindDirection,WindDirectionDegrees,WindSpeedMPH,WindSpeedGustMPH,Humidity,HourlyPrecipIn,Conditions,Clouds,dailyrainin,SoftwareType,DateUTC
2013-02-19 00:00:00,41.6,27.1,30.22,SSE,166,0.0,6.0,56,0.00,,---,0.00,VWS V14.00,2013-02-19 05:00:00,
2013-02-19 00:05:00,41.4,26.9,30.22,SSE,167,0.0,6.0,56,0.00,,---,0.00,VWS V14.00,2013-02-19 05:05:00,
2013-02-19 00:10:00,41.2,27.1,30.22,SSE,164,0.0,6.0,57,0.00,,---,0.00,VWS V14.00,2013-02-19 05:10:00,
2013-02-19 00:15:00,40.9,26.9,30.22,SSE,163,0.0,6.0,57,0.00,,---,0.00,VWS V14.00,2013-02-19 05:15:00,
2013-02-19 00:20:00,40.7,27.1,30.21,SSE,163,0.0,6.0,58,0.00,,---,0.00,VWS V14.00,2013-02-19 05:20:00,
2013-02-19 00:25:00,40.4,27.2,30.21,SSE,165,1.0,6.0,59,0.00,,---,0.00,VWS V14.00,2013-02-19 05:25:00,
2013-02-19 00:30:00,40.2,27.4,30.20,South,179,1.0,6.0,60,0.00,,---,0.00,VWS V14.00,2013-02-19 05:30:00,
2013-02-19 00:35:00,39.9,27.2,30.20,South,182,3.0,6.0,60,0.00,,---,0.00,VWS V14.00,2013-02-19 05:35:00,
2013-02-19 00:40:00,39.8,27.1,30.20,SSE,161,1.0,6.0,60,0.00,,---,0.00,VWS V14.00,2013-02-19 05:40:00,
2013-02-19 00:45:00,39.7,27.4,30.20,SSE,163,4.0,6.0,61,0.00,,---,0.00,VWS V14.00,2013-02-19 05:45:00,
2013-02-19 00:50:00,39.5,27.6,30.19,SSE,161,0.0,6.0,62,0.00,,---,0.00,VWS V14.00,2013-02-19 05:50:00,
2013-02-19 00:55:00,39.5,27.6,30.19,SSE,159,1.0,6.0,62,0.00,,---,0.00,VWS V14.00,2013-02-19 05:55:00,
2013-02-19 01:00:00,39.4,27.9,30.19,SSE,159,4.0,5.0,63,0.00,,---,0.00,VWS V14.00,2013-02-19 06:00:00,
2013-02-19 01:05:00,39.3,27.8,30.19,SSE,157,1.0,5.0,63,0.00,,---,0.00,VWS V14.00,2013-02-19 06:05:00,
2013-02-19 01:10:00,39.2,27.7,30.18,SSE,165,4.0,5.0,63,0.00,,---,0.00,VWS V14.00,2013-02-19 06:10:00,
2013-02-19 01:15:00,39.1,28.0,30.18,SSE,157,1.0,7.0,64,0.00,,---,0.00,VWS V14.00,2013-02-19 06:15:00,
2013-02-19 01:20:00,39.1,28.0,30.18,SSE,147,2.0,8.0,64,0.00,,---,0.00,VWS V14.00,2013-02-19 06:20:00,
2013-02-19 01:25:00,39.1,28.0,30.18,SSE,147,0.0,8.0,64,0.00,,---,0.00,VWS V14.00,2013-02-19 06:25:00,
2013-02-19 01:30:00,39.1,28.3,30.18,SSE,147,4.0,4.0,65,0.00,,---,0.00,VWS V14.00,2013-02-19 06:30:00,
2013-02-19 01:35:00,39.2,28.4,30.17,SSE,147,2.0,6.0,65,0.00,,---,0.00,VWS V14.00,2013-02-19 06:35:00,
2013-02-19 01:40:00,39.2,28.4,30.17,SSE,160,1.0,7.0,65,0.00,,---,0.00,VWS V14.00,2013-02-19 06:40:00,
2013-02-19 01:45:00,39.3,28.5,30.17,SSE,165,0.0,7.0,65,0.00,,---,0.00,VWS V14.00,2013-02-19 06:45:00,
2013-02-19 01:50:00,39.2,28.4,30.17,SSE,158,1.0,7.0,65,0.00,,---,0.00,VWS V14.00,2013-02-19 06:50:00,
2013-02-19 01:55:00,39.1,28.3,30.16,South,176,0.0,7.0,65,0.00,,---,0.00,VWS V14.00,2013-02-19 06:55:00,
2013-02-19 02:00:00,39.1,28.7,30.16,SSE,156,1.0,6.0,66,0.00,,---,0.00,VWS V14.00,2013-02-19 07:00:00,
2013-02-19 02:05:00,39.0,28.2,30.17,SSW,192,0.0,6.0,65,0.00,,---,0.00,VWS V14.00,2013-02-19 07:05:00,
2013-02-19 02:10:00,38.9,28.5,30.17,SSW,192,0.0,6.0,66,0.00,,---,0.00,VWS V14.00,2013-02-19 07:10:00,
2013-02-19 02:15:00,38.8,28.4,30.16,South,176,0.0,6.0,66,0.00,,---,0.00,VWS V14.00,2013-02-19 07:15:00,
2013-02-19 02:20:00,38.7,28.7,30.16,South,170,2.0,6.0,67,0.00,,---,0.00,VWS V14.00,2013-02-19 07:20:00,
2013-02-19 02:25:00,38.6,28.6,30.15,SSE,159,4.0,6.0,67,0.00,,---,0.00,VWS V14.00,2013-02-19 07:25:00,
2013-02-19 02:30:00,38.4,28.4,30.15,SSE,164,0.0,5.0,67,0.00,,---,0.00,VWS V14.00,2013-02-19 07:30:00,
2013-02-19 02:35:00,38.3,28.3,30.14,SSE,162,0.0,5.0,67,0.00,,---,0.00,VWS V14.00,2013-02-19 07:35:00,
2013-02-19 02:40:00,38.2,28.6,30.14,SSE,160,0.0,6.0,68,0.00,,---,0.00,VWS V14.00,2013-02-19 07:40:00,
2013-02-19 02:45:00,38.1,28.5,30.13,SSE,158,2.0,8.0,68,0.00,,---,0.00,VWS V14.00,2013-02-19 07:45:00,
2013-02-19 02:50:00,38.0,28.8,30.13,SSE,159,0.0,8.0,69,0.00,,---,0.00,VWS V14.00,2013-02-19 07:50:00,
2013-02-19 02:55:00,37.9,28.6,30.13,SSE,147,0.0,8.0,69,0.00,,---,0.00,VWS V14.00,2013-02-19 07:55:00,
2013-02-19 03:00:00,37.8,28.9,30.13,SSE,157,4.0,8.0,70,0.00,,---,0.00,VWS V14.00,2013-02-19 08:00:00,
2013-02-19 03:05:00,37.8,28.9,30.13,South,182,1.0,8.0,70,0.00,,---,0.00,VWS V14.00,2013-02-19 08:05:00,
2013-02-19 03:10:00,37.7,28.8,30.12,South,181,1.0,8.0,70,0.00,,---,0.00,VWS V14.00,2013-02-19 08:10:00,
2013-02-19 03:15:00,37.7,28.8,30.12,SSE,162,0.0,8.0,70,0.00,,---,0.00,VWS V14.00,2013-02-19 08:15:00,
2013-02-19 03:20:00,37.7,29.2,30.12,SSE,161,2.0,8.0,71,0.00,,---,0.00,VWS V14.00,2013-02-19 08:20:00,
2013-02-19 03:25:00,37.6,29.1,30.11,SSE,162,0.0,8.0,71,0.00,,---,0.00,VWS V14.00,2013-02-19 08:25:00,
2013-02-19 03:30:00,37.6,29.1,30.11,SSE,162,2.0,4.0,71,0.00,,---,0.00,VWS V14.00,2013-02-19 08:30:00,
2013-02-19 03:35:00,37.6,29.4,30.10,SSE,163,4.0,5.0,72,0.00,,---,0.00,VWS V14.00,2013-02-19 08:35:00,
2013-02-19 03:40:00,37.7,29.5,30.10,South,181,5.0,5.0,72,0.00,,---,0.00,VWS V14.00,2013-02-19 08:40:00,
2013-02-19 03:45:00,37.8,29.6,30.10,South,186,0.0,5.0,72,0.00,,---,0.00,VWS V14.00,2013-02-19 08:45:00,
2013-02-19 03:50:00,37.9,29.7,30.10,SSE,167,0.0,6.0,72,0.00,,---,0.00,VWS V14.00,2013-02-19 08:50:00,
2013-02-19 03:55:00,38.0,29.8,30.10,SSE,164,6.0,6.0,72,0.00,,---,0.00,VWS V14.00,2013-02-19 08:55:00,
2013-02-19 04:00:00,38.1,29.9,30.09,SSE,163,0.0,5.0,72,0.00,,---,0.00,VWS V14.00,2013-02-19 09:00:00,
2013-02-19 04:05:00,38.1,29.9,30.09,SSE,163,0.0,5.0,72,0.00,,---,0.00,VWS V14.00,2013-02-19 09:05:00,
2013-02-19 04:10:00,38.0,29.8,30.09,SSE,163,0.0,5.0,72,0.00,,---,0.00,VWS V14.00,2013-02-19 09:10:00,
2013-02-19 04:15:00,38.0,29.8,30.09,SSE,161,2.0,6.0,72,0.00,,---,0.00,VWS V14.00,2013-02-19 09:15:00,
2013-02-19 04:20:00,37.8,29.9,30.08,SSE,161,0.0,6.0,73,0.00,,---,0.00,VWS V14.00,2013-02-19 09:20:00,
2013-02-19 04:25:00,37.7,30.2,30.08,SSE,161,0.0,6.0,74,0.00,,---,0.00,VWS V14.00,2013-02-19 09:25:00,
2013-02-19 04:30:00,37.6,30.1,30.08,SSE,162,4.0,5.0,74,0.00,,---,0.00,VWS V14.00,2013-02-19 09:30:00,
2013-02-19 04:35:00,37.6,30.1,30.08,SSE,163,0.0,5.0,74,0.00,,---,0.00,VWS V14.00,2013-02-19 09:35:00,
2013-02-19 04:40:00,37.5,30.3,30.08,SSE,162,0.0,5.0,75,0.00,,---,0.00,VWS V14.00,2013-02-19 09:40:00,
2013-02-19 04:45:00,37.5,30.6,30.08,SSE,162,1.0,5.0,76,0.00,,---,0.00,VWS V14.00,2013-02-19 09:45:00,
2013-02-19 04:50:00,37.5,30.6,30.08,SSE,161,4.0,6.0,76,0.00,,---,0.00,VWS V14.00,2013-02-19 09:50:00,
2013-02-19 04:55:00,37.6,30.7,30.08,SSE,161,0.0,6.0,76,0.00,,---,0.00,VWS V14.00,2013-02-19 09:55:00,
2013-02-19 05:00:00,37.7,31.1,30.07,SSE,161,0.0,2.0,77,0.00,,---,0.00,VWS V14.00,2013-02-19 10:00:00,
2013-02-19 05:05:00,37.6,31.1,30.07,SSE,160,0.0,4.0,77,0.00,,---,0.00,VWS V14.00,2013-02-19 10:05:00,
2013-02-19 05:10:00,37.7,31.1,30.08,SSE,160,0.0,4.0,77,0.00,,---,0.00,VWS V14.00,2013-02-19 10:10:00,
2013-02-19 05:15:00,37.7,31.1,30.08,SSE,161,0.0,4.0,77,0.00,,---,0.00,VWS V14.00,2013-02-19 10:15:00,
2013-02-19 05:20:00,37.8,31.6,30.08,SSE,161,1.0,4.0,78,0.00,,---,0.00,VWS V14.00,2013-02-19 10:20:00,
2013-02-19 05:25:00,38.0,31.8,30.08,SSE,161,2.0,4.0,78,0.00,,---,0.00,VWS V14.00,2013-02-19 10:25:00,
2013-02-19 05:30:00,38.1,31.9,30.08,SSE,161,0.0,4.0,78,0.00,,---,0.00,VWS V14.00,2013-02-19 10:30:00,
2013-02-19 05:35:00,38.3,32.0,30.08,SSE,161,1.0,4.0,78,0.00,,---,0.00,VWS V14.00,2013-02-19 10:35:00,
2013-02-19 05:40:00,38.4,32.2,30.08,SSE,160,1.0,5.0,78,0.00,,---,0.00,VWS V14.00,2013-02-19 10:40:00,
2013-02-19 05:45:00,38.5,32.2,30.08,SSE,160,4.0,5.0,78,0.00,,---,0.00,VWS V14.00,2013-02-19 10:45:00,
2013-02-19 05:50:00,38.6,32.3,30.08,SSE,159,2.0,5.0,78,0.00,,---,0.00,VWS V14.00,2013-02-19 10:50:00,
2013-02-19 05:55:00,38.7,32.4,30.08,SSE,159,0.0,5.0,78,0.00,,---,0.00,VWS V14.00,2013-02-19 10:55:00,
2013-02-19 06:00:00,38.8,32.9,30.08,SSE,159,0.0,1.0,79,0.00,,---,0.00,VWS V14.00,2013-02-19 11:00:00,
2013-02-19 06:05:00,39.0,33.0,30.08,SSE,161,2.0,5.0,79,0.00,,---,0.00,VWS V14.00,2013-02-19 11:05:00,
2013-02-19 06:10:00,39.3,33.7,30.08,SSE,161,0.0,5.0,80,0.00,,---,0.00,VWS V14.00,2013-02-19 11:10:00,
2013-02-19 06:15:00,39.5,33.5,30.08,SSE,161,0.0,5.0,79,0.00,,---,0.00,VWS V14.00,2013-02-19 11:15:00,
2013-02-19 06:20:00,39.6,33.6,30.09,SSE,161,0.0,5.0,79,0.00,,---,0.00,VWS V14.00,2013-02-19 11:20:00,
2013-02-19 06:25:00,39.7,33.7,30.08,SSE,161,0.0,5.0,79,0.00,,---,0.00,VWS V14.00,2013-02-19 11:25:00,
2013-02-19 06:30:00,39.7,33.7,30.09,SSE,161,0.0,1.0,79,0.00,,---,0.00,VWS V14.00,2013-02-19 11:30:00,
2013-02-19 06:35:00,39.7,33.7,30.09,SSE,161,0.0,1.0,79,0.00,,---,0.00,VWS V14.00,2013-02-19 11:35:00,
2013-02-19 06:40:00,39.7,33.7,30.09,SSE,161,0.0,1.0,79,0.00,,---,0.00,VWS V14.00,2013-02-19 11:40:00,
2013-02-19 06:45:00,39.7,34.0,30.09,SSE,161,0.0,1.0,80,0.00,,---,0.00,VWS V14.00,2013-02-19 11:45:00,
2013-02-19 06:50:00,39.6,34.6,30.10,SSE,161,0.0,1.0,82,0.00,,---,0.00,VWS V14.00,2013-02-19 11:50:00,
2013-02-19 06:55:00,39.5,34.8,30.09,SSE,161,0.0,1.0,83,0.01,,---,0.01,VWS V14.00,2013-02-19 11:55:00,
2013-02-19 07:00:00,39.5,35.4,30.09,SSE,161,0.0,0.0,85,0.02,,---,0.02,VWS V14.00,2013-02-19 12:00:00,
2013-02-19 07:05:00,39.4,35.6,30.09,SSE,161,0.0,0.0,86,0.02,,---,0.02,VWS V14.00,2013-02-19 12:05:00,
2013-02-19 07:10:00,39.3,35.5,30.08,SSE,161,0.0,1.0,86,0.02,,---,0.02,VWS V14.00,2013-02-19 12:10:00,
2013-02-19 07:15:00,39.2,35.7,30.08,SSE,161,0.0,1.0,87,0.02,,---,0.02,VWS V14.00,2013-02-19 12:15:00,
2013-02-19 07:20:00,39.1,35.8,30.08,SSE,161,0.0,1.0,88,0.03,,---,0.03,VWS V14.00,2013-02-19 12:20:00,
2013-02-19 07:25:00,39.0,36.0,30.08,SSE,161,0.0,1.0,89,0.04,,---,0.04,VWS V14.00,2013-02-19 12:25:00,
2013-02-19 07:30:00,38.9,35.9,30.08,SSE,161,0.0,0.0,89,0.04,,---,0.04,VWS V14.00,2013-02-19 12:30:00,
2013-02-19 07:35:00,38.9,35.9,30.08,SSE,161,0.0,1.0,89,0.05,,---,0.05,VWS V14.00,2013-02-19 12:35:00,
2013-02-19 07:40:00,38.8,36.1,30.08,SSE,161,0.0,1.0,90,0.06,,---,0.06,VWS V14.00,2013-02-19 12:40:00,
2013-02-19 07:45:00,38.8,36.1,30.08,SSE,161,0.0,2.0,90,0.07,,---,0.07,VWS V14.00,2013-02-19 12:45:00,
2013-02-19 07:50:00,38.8,36.4,30.07,SSE,161,0.0,4.0,91,0.08,,---,0.08,VWS V14.00,2013-02-19 12:50:00,
2013-02-19 07:55:00,38.8,36.4,30.07,SSE,161,0.0,4.0,91,0.08,,---,0.08,VWS V14.00,2013-02-19 12:55:00,
2013-02-19 08:00:00,38.8,36.4,30.07,SSE,161,2.0,5.0,91,0.07,,---,0.08,VWS V14.00,2013-02-19 13:00:00,
2013-02-19 08:05:00,38.9,36.5,30.06,SSE,159,0.0,5.0,91,0.07,,---,0.08,VWS V14.00,2013-02-19 13:05:00,
2013-02-19 08:10:00,38.9,36.8,30.06,SSE,159,1.0,6.0,92,0.08,,---,0.09,VWS V14.00,2013-02-19 13:10:00,
2013-02-19 08:15:00,38.9,36.8,30.07,SSE,164,4.0,6.0,92,0.09,,---,0.10,VWS V14.00,2013-02-19 13:15:00,
2013-02-19 08:20:00,38.9,36.8,30.07,SSE,165,0.0,6.0,92,0.10,,---,0.11,VWS V14.00,2013-02-19 13:20:00,
2013-02-19 08:25:00,39.0,36.9,30.05,SSE,165,1.0,6.0,92,0.12,,---,0.13,VWS V14.00,2013-02-19 13:25:00,
2013-02-19 08:30:00,39.1,37.0,30.06,SSE,166,0.0,2.0,92,0.10,,---,0.14,VWS V14.00,2013-02-19 13:30:00,
2013-02-19 08:35:00,39.1,37.0,30.05,SSE,165,2.0,4.0,92,0.12,,---,0.16,VWS V14.00,2013-02-19 13:35:00,
2013-02-19 08:40:00,39.2,37.3,30.06,SSE,165,0.0,4.0,93,0.13,,---,0.17,VWS V14.00,2013-02-19 13:40:00,
2013-02-19 08:45:00,39.3,37.5,30.08,SSE,165,0.0,4.0,93,0.14,,---,0.18,VWS V14.00,2013-02-19 13:45:00,
2013-02-19 08:50:00,39.6,37.8,30.08,SSE,165,0.0,4.0,93,0.14,,---,0.18,VWS V14.00,2013-02-19 13:50:00,
2013-02-19 08:55:00,39.7,38.1,30.08,SSE,165,0.0,4.0,94,0.14,,---,0.18,VWS V14.00,2013-02-19 13:55:00,
2013-02-19 09:00:00,40.0,38.4,30.08,SSE,165,0.0,1.0,94,0.11,,---,0.19,VWS V14.00,2013-02-19 14:00:00,
2013-02-19 09:05:00,40.3,38.7,30.08,SSE,165,0.0,1.0,94,0.12,,---,0.20,VWS V14.00,2013-02-19 14:05:00,
2013-02-19 09:10:00,40.6,39.0,30.08,SSE,165,0.0,1.0,94,0.13,,---,0.21,VWS V14.00,2013-02-19 14:10:00,
2013-02-19 09:15:00,40.8,39.2,30.07,SSE,165,0.0,1.0,94,0.13,,---,0.21,VWS V14.00,2013-02-19 14:15:00,
2013-02-19 09:20:00,41.0,39.4,30.06,SSE,165,0.0,1.0,94,0.14,,---,0.22,VWS V14.00,2013-02-19 14:20:00,
2013-02-19 09:25:00,41.2,39.6,30.07,SSE,165,0.0,1.0,94,0.14,,---,0.22,VWS V14.00,2013-02-19 14:25:00,
2013-02-19 09:30:00,41.4,40.1,30.07,SSE,165,0.0,0.0,95,0.08,,---,0.22,VWS V14.00,2013-02-19 14:30:00,
2013-02-19 09:35:00,41.6,40.0,30.06,SSE,165,0.0,0.0,94,0.08,,---,0.22,VWS V14.00,2013-02-19 14:35:00,
2013-02-19 09:40:00,41.8,40.2,30.07,SSE,165,0.0,1.0,94,0.09,,---,0.23,VWS V14.00,2013-02-19 14:40:00,
2013-02-19 09:45:00,41.9,40.3,30.07,SSE,165,0.0,1.0,94,0.09,,---,0.23,VWS V14.00,2013-02-19 14:45:00,
2013-02-19 09:50:00,42.0,40.4,30.07,SSE,165,0.0,1.0,94,0.09,,---,0.23,VWS V14.00,2013-02-19 14:50:00,
2013-02-19 09:55:00,42.2,40.6,30.07,SSE,165,0.0,1.0,94,0.10,,---,0.24,VWS V14.00,2013-02-19 14:55:00,
2013-02-19 10:00:00,42.4,40.8,30.07,SSE,165,0.0,2.0,94,0.05,,---,0.24,VWS V14.00,2013-02-19 15:00:00,
2013-02-19 10:05:00,42.5,41.2,30.07,SSE,165,0.0,2.0,95,0.05,,---,0.24,VWS V14.00,2013-02-19 15:05:00,
2013-02-19 10:10:00,42.6,41.0,30.07,WSW,238,1.0,4.0,94,0.06,,---,0.25,VWS V14.00,2013-02-19 15:10:00,
2013-02-19 10:15:00,42.7,41.1,30.07,NW,305,1.0,5.0,94,0.06,,---,0.25,VWS V14.00,2013-02-19 15:15:00,
2013-02-19 10:20:00,42.7,41.1,30.07,NW,305,2.0,5.0,94,0.07,,---,0.26,VWS V14.00,2013-02-19 15:20:00,
2013-02-19 10:25:00,42.8,41.2,30.06,NW,305,0.0,5.0,94,0.07,,---,0.26,VWS V14.00,2013-02-19 15:25:00,
2013-02-19 10:30:00,42.9,41.3,30.06,NW,305,0.0,0.0,94,0.04,,---,0.26,VWS V14.00,2013-02-19 15:30:00,
2013-02-19 10:35:00,43.1,41.5,30.06,NW,305,0.0,1.0,94,0.04,,---,0.26,VWS V14.00,2013-02-19 15:35:00,
2013-02-19 10:40:00,43.1,41.8,30.06,NW,306,0.0,5.0,95,0.04,,---,0.26,VWS V14.00,2013-02-19 15:40:00,
2013-02-19 10:45:00,43.2,41.9,30.06,NW,306,0.0,5.0,95,0.04,,---,0.26,VWS V14.00,2013-02-19 15:45:00,
2013-02-19 10:50:00,43.3,42.0,30.06,NW,306,1.0,5.0,95,0.04,,---,0.26,VWS V14.00,2013-02-19 15:50:00,
2013-02-19 10:55:00,43.4,42.1,30.06,NW,306,2.0,5.0,95,0.04,,---,0.26,VWS V14.00,2013-02-19 15:55:00,
2013-02-19 11:00:00,43.4,41.8,30.06,NW,305,0.0,2.0,94,0.02,,---,0.26,VWS V14.00,2013-02-19 16:00:00,
2013-02-19 11:05:00,43.5,41.9,30.06,NW,306,0.0,4.0,94,0.02,,---,0.26,VWS V14.00,2013-02-19 16:05:00,
2013-02-19 11:10:00,43.5,41.9,30.06,NW,306,2.0,4.0,94,0.02,,---,0.26,VWS V14.00,2013-02-19 16:10:00,
2013-02-19 11:15:00,43.5,41.9,30.06,NW,306,0.0,4.0,94,0.02,,---,0.26,VWS V14.00,2013-02-19 16:15:00,
2013-02-19 11:20:00,43.5,41.9,30.06,NW,306,2.0,4.0,94,0.02,,---,0.26,VWS V14.00,2013-02-19 16:20:00,
2013-02-19 11:25:00,43.5,41.9,30.07,NW,311,0.0,4.0,94,0.02,,---,0.26,VWS V14.00,2013-02-19 16:25:00,
2013-02-19 11:30:00,43.5,41.9,30.07,NW,311,0.0,1.0,94,0.00,,---,0.26,VWS V14.00,2013-02-19 16:30:00,
2013-02-19 11:35:00,43.6,42.0,30.07,NW,311,0.0,2.0,94,0.00,,---,0.26,VWS V14.00,2013-02-19 16:35:00,
2013-02-19 11:40:00,43.6,42.0,30.06,NW,311,0.0,2.0,94,0.00,,---,0.26,VWS V14.00,2013-02-19 16:40:00,
2013-02-19 11:45:00,43.6,42.3,30.06,NW,311,0.0,2.0,95,0.00,,---,0.26,VWS V14.00,2013-02-19 16:45:00,
2013-02-19 11:50:00,43.8,42.5,30.05,NW,311,0.0,2.0,95,0.00,,---,0.26,VWS V14.00,2013-02-19 16:50:00,
2013-02-19 11:55:00,44.0,42.7,30.05,NW,311,0.0,2.0,95,0.00,,---,0.26,VWS V14.00,2013-02-19 16:55:00,
2013-02-19 12:00:00,44.3,43.0,30.04,NW,311,0.0,1.0,95,0.00,,---,0.26,VWS V14.00,2013-02-19 17:00:00,
2013-02-19 12:05:00,44.6,43.3,30.03,NW,307,0.0,2.0,95,0.00,,---,0.26,VWS V14.00,2013-02-19 17:05:00,
2013-02-19 12:10:00,44.9,43.6,30.03,NW,307,0.0,2.0,95,0.00,,---,0.26,VWS V14.00,2013-02-19 17:10:00,
2013-02-19 12:15:00,45.1,43.8,30.03,NW,307,0.0,2.0,95,0.00,,---,0.26,VWS V14.00,2013-02-19 17:15:00,
2013-02-19 12:20:00,45.4,44.0,30.03,NW,307,0.0,2.0,95,0.00,,---,0.26,VWS V14.00,2013-02-19 17:20:00,
2013-02-19 12:25:00,45.6,44.2,30.03,NW,307,0.0,2.0,95,0.00,,---,0.26,VWS V14.00,2013-02-19 17:25:00,
2013-02-19 12:30:00,45.7,44.3,30.03,WNW,302,0.0,4.0,95,0.00,,---,0.26,VWS V14.00,2013-02-19 17:30:00,
2013-02-19 12:35:00,45.9,44.5,30.03,WNW,302,0.0,4.0,95,0.00,,---,0.26,VWS V14.00,2013-02-19 17:35:00,
2013-02-19 12:40:00,46.1,44.8,30.02,WNW,300,0.0,1.0,95,0.00,,---,0.26,VWS V14.00,2013-02-19 17:40:00,
2013-02-19 12:45:00,46.2,44.8,30.02,WNW,300,1.0,2.0,95,0.00,,---,0.26,VWS V14.00,2013-02-19 17:45:00,
2013-02-19 12:50:00,46.3,45.0,30.02,WNW,299,2.0,2.0,95,0.00,,---,0.26,VWS V14.00,2013-02-19 17:50:00,
2013-02-19 12:55:00,46.4,45.0,30.02,WNW,282,0.0,5.0,95,0.00,,---,0.26,VWS V14.00,2013-02-19 17:55:00,
2013-02-19 13:00:00,46.5,45.2,30.02,West,281,0.0,2.0,95,0.00,,---,0.26,VWS V14.00,2013-02-19 18:00:00,
2013-02-19 13:05:00,46.7,45.3,30.02,West,274,2.0,4.0,95,0.00,,---,0.26,VWS V14.00,2013-02-19 18:05:00,
2013-02-19 13:10:00,46.9,45.5,30.01,West,262,0.0,4.0,95,0.00,,---,0.26,VWS V14.00,2013-02-19 18:10:00,
2013-02-19 13:15:00,47.0,45.7,30.01,WSW,250,2.0,6.0,95,0.00,,---,0.26,VWS V14.00,2013-02-19 18:15:00,
2013-02-19 13:20:00,47.2,45.8,30.01,WSW,250,1.0,6.0,95,0.00,,---,0.26,VWS V14.00,2013-02-19 18:20:00,
2013-02-19 13:25:00,47.3,45.9,30.01,WSW,250,2.0,6.0,95,0.00,,---,0.26,VWS V14.00,2013-02-19 18:25:00,
2013-02-19 13:30:00,47.6,46.2,30.01,WSW,252,1.0,2.0,95,0.00,,---,0.26,VWS V14.00,2013-02-19 18:30:00,
2013-02-19 13:35:00,47.8,46.4,30.01,NW,319,2.0,6.0,95,0.00,,---,0.26,VWS V14.00,2013-02-19 18:35:00,
2013-02-19 13:40:00,48.0,46.6,30.00,NW,319,0.0,6.0,95,0.00,,---,0.26,VWS V14.00,2013-02-19 18:40:00,
2013-02-19 13:45:00,48.2,46.8,30.01,NW,324,0.0,6.0,95,0.00,,---,0.26,VWS V14.00,2013-02-19 18:45:00,
2013-02-19 13:50:00,48.4,47.0,30.00,West,263,2.0,6.0,95,0.00,,---,0.26,VWS V14.00,2013-02-19 18:50:00,
2013-02-19 13:55:00,48.6,47.0,30.00,WSW,238,3.0,6.0,94,0.00,,---,0.26,VWS V14.00,2013-02-19 18:55:00,
2013-02-19 14:00:00,48.8,47.2,30.00,West,266,4.0,6.0,94,0.00,,---,0.26,VWS V14.00,2013-02-19 19:00:00,
2013-02-19 14:05:00,49.2,47.5,30.00,WSW,245,3.0,9.0,94,0.00,,---,0.26,VWS V14.00,2013-02-19 19:05:00,
2013-02-19 14:10:00,49.6,48.0,30.00,WSW,258,2.0,9.0,94,0.00,,---,0.26,VWS V14.00,2013-02-19 19:10:00,
2013-02-19 14:15:00,49.9,48.2,30.00,West,269,0.0,9.0,94,0.00,,---,0.26,VWS V14.00,2013-02-19 19:15:00,
2013-02-19 14:21:00,50.2,48.3,29.99,WSW,257,3.0,3.0,93,0.00,,---,0.26,VWS V14.00,2013-02-19 19:21:00,
2013-02-19 14:26:00,50.4,48.5,29.99,WSW,251,1.0,5.0,93,0.00,,---,0.26,VWS V14.00,2013-02-19 19:26:00,
2013-02-19 14:31:00,50.6,48.4,29.99,West,265,1.0,6.0,92,0.00,,---,0.26,VWS V14.00,2013-02-19 19:31:00,
2013-02-19 14:36:00,50.8,48.3,29.99,NW,309,5.0,8.0,91,0.00,,---,0.26,VWS V14.00,2013-02-19 19:36:00,
2013-02-19 14:41:00,50.9,48.7,29.99,WSW,253,2.0,8.0,92,0.00,,---,0.26,VWS V14.00,2013-02-19 19:41:00,
2013-02-19 14:46:00,51.0,48.5,29.98,WSW,244,3.0,8.0,91,0.00,,---,0.26,VWS V14.00,2013-02-19 19:46:00,
2013-02-19 14:51:00,51.0,48.5,29.98,NW,323,5.0,8.0,91,0.00,,---,0.26,VWS V14.00,2013-02-19 19:51:00,
2013-02-19 14:56:00,51.2,48.7,29.98,WSW,251,2.0,8.0,91,0.00,,---,0.26,VWS V14.00,2013-02-19 19:56:00,
2013-02-19 15:01:00,51.7,49.2,29.98,West,266,1.0,5.0,91,0.00,,---,0.26,VWS V14.00,2013-02-19 20:01:00,
2013-02-19 15:06:00,52.0,48.9,29.98,NNW,334,1.0,8.0,89,0.00,,---,0.26,VWS V14.00,2013-02-19 20:06:00,
2013-02-19 15:11:00,52.1,48.7,29.99,NW,309,1.0,8.0,88,0.00,,---,0.26,VWS V14.00,2013-02-19 20:11:00,
2013-02-19 15:16:00,52.2,48.5,29.99,NNW,332,2.0,9.0,87,0.00,,---,0.26,VWS V14.00,2013-02-19 20:16:00,
2013-02-19 15:21:00,52.4,48.7,29.99,WSW,255,2.0,9.0,87,0.00,,---,0.26,VWS V14.00,2013-02-19 20:21:00,
2013-02-19 15:26:00,52.6,48.8,29.99,WNW,285,0.0,9.0,87,0.00,,---,0.26,VWS V14.00,2013-02-19 20:26:00,
2013-02-19 15:31:00,52.8,48.7,29.98,North,360,3.0,7.0,86,0.00,,---,0.26,VWS V14.00,2013-02-19 20:31:00,
2013-02-19 15:36:00,53.0,48.3,29.99,West,271,5.0,7.0,84,0.00,,---,0.26,VWS V14.00,2013-02-19 20:36:00,
2013-02-19 15:41:00,53.2,48.2,29.98,NW,317,2.0,8.0,83,0.00,,---,0.26,VWS V14.00,2013-02-19 20:41:00,
2013-02-19 15:46:00,53.4,48.4,29.98,NW,317,2.0,8.0,83,0.00,,---,0.26,VWS V14.00,2013-02-19 20:46:00,
2013-02-19 15:51:00,53.6,47.9,29.98,NW,316,5.0,8.0,81,0.00,,---,0.26,VWS V14.00,2013-02-19 20:51:00,
2013-02-19 15:56:00,53.6,47.9,29.98,West,261,2.0,9.0,81,0.00,,---,0.26,VWS V14.00,2013-02-19 20:56:00,
2013-02-19 16:01:00,53.7,47.7,29.98,NNW,327,4.0,7.0,80,0.00,,---,0.26,VWS V14.00,2013-02-19 21:01:00,
2013-02-19 16:06:00,53.9,47.9,29.98,North,360,5.0,8.0,80,0.00,,---,0.26,VWS V14.00,2013-02-19 21:06:00,
2013-02-19 16:11:00,54.2,48.5,29.98,NNW,333,4.0,8.0,81,0.00,,---,0.26,VWS V14.00,2013-02-19 21:11:00,
2013-02-19 16:16:00,54.8,48.4,29.98,NW,323,4.0,8.0,79,0.00,,---,0.26,VWS V14.00,2013-02-19 21:16:00,
2013-02-19 16:21:00,55.3,48.6,29.98,WNW,294,0.0,8.0,78,0.00,,---,0.26,VWS V14.00,2013-02-19 21:21:00,
2013-02-19 16:26:00,55.7,48.3,29.98,NNW,331,2.0,8.0,76,0.00,,---,0.26,VWS V14.00,2013-02-19 21:26:00,
2013-02-19 16:31:00,55.7,47.9,29.98,NW,319,2.0,8.0,75,0.00,,---,0.26,VWS V14.00,2013-02-19 21:31:00,
2013-02-19 16:36:00,55.6,47.5,29.98,NW,315,0.0,8.0,74,0.00,,---,0.26,VWS V14.00,2013-02-19 21:36:00,
2013-02-19 16:41:00,55.5,47.7,29.98,NNW,327,7.0,9.0,75,0.00,,---,0.26,VWS V14.00,2013-02-19 21:41:00,
2013-02-19 16:46:00,55.4,47.6,29.98,NW,306,6.0,9.0,75,0.00,,---,0.26,VWS V14.00,2013-02-19 21:46:00,
2013-02-19 16:51:00,55.3,47.5,29.98,NW,313,4.0,9.0,75,0.00,,---,0.26,VWS V14.00,2013-02-19 21:51:00,
2013-02-19 16:56:00,55.3,47.5,29.98,NW,308,2.0,9.0,75,0.00,,---,0.26,VWS V14.00,2013-02-19 21:56:00,
2013-02-19 17:01:00,55.3,47.9,29.98,NW,304,2.0,5.0,76,0.00,,---,0.26,VWS V14.00,2013-02-19 22:01:00,
2013-02-19 17:06:00,55.5,47.4,29.98,NNW,344,1.0,6.0,74,0.00,,---,0.26,VWS V14.00,2013-02-19 22:06:00,
2013-02-19 17:11:00,55.6,47.8,29.98,WSW,252,2.0,6.0,75,0.00,,---,0.26,VWS V14.00,2013-02-19 22:11:00,
2013-02-19 17:16:00,55.7,47.5,29.98,WSW,255,4.0,6.0,74,0.00,,---,0.26,VWS V14.00,2013-02-19 22:16:00,
2013-02-19 17:21:00,55.7,47.5,29.98,WSW,258,0.0,6.0,74,0.00,,---,0.26,VWS V14.00,2013-02-19 22:21:00,
2013-02-19 17:26:00,55.7,47.5,29.98,WNW,300,0.0,6.0,74,0.00,,---,0.26,VWS V14.00,2013-02-19 22:26:00,
2013-02-19 17:31:00,55.7,47.5,29.98,West,272,1.0,5.0,74,0.00,,---,0.26,VWS V14.00,2013-02-19 22:31:00,
2013-02-19 17:36:00,55.7,47.5,29.98,West,268,2.0,5.0,74,0.00,,---,0.26,VWS V14.00,2013-02-19 22:36:00,
2013-02-19 17:41:00,55.6,47.5,29.98,West,259,0.0,5.0,74,0.00,,---,0.26,VWS V14.00,2013-02-19 22:41:00,
2013-02-19 17:46:00,55.5,47.4,29.98,West,259,1.0,5.0,74,0.00,,---,0.26,VWS V14.00,2013-02-19 22:46:00,
2013-02-19 17:51:00,55.4,46.9,29.98,West,259,0.0,5.0,73,0.00,,---,0.26,VWS V14.00,2013-02-19 22:51:00,
2013-02-19 17:56:00,55.2,46.7,29.98,West,259,0.0,5.0,73,0.00,,---,0.26,VWS V14.00,2013-02-19 22:56:00,
2013-02-19 18:01:00,55.0,45.8,29.98,West,267,1.0,2.0,71,0.00,,---,0.26,VWS V14.00,2013-02-19 23:01:00,
2013-02-19 18:06:00,54.9,44.9,29.99,NW,311,0.0,7.0,69,0.00,,---,0.26,VWS V14.00,2013-02-19 23:06:00,
2013-02-19 18:11:00,54.7,44.4,29.99,NW,311,0.0,7.0,68,0.00,,---,0.26,VWS V14.00,2013-02-19 23:11:00,
2013-02-19 18:16:00,54.4,44.1,29.99,West,264,0.0,7.0,68,0.00,,---,0.26,VWS V14.00,2013-02-19 23:16:00,
2013-02-19 18:21:00,54.1,43.8,30.00,West,264,0.0,7.0,68,0.00,,---,0.26,VWS V14.00,2013-02-19 23:21:00,
2013-02-19 18:26:00,53.8,43.5,30.00,West,277,0.0,7.0,68,0.00,,---,0.26,VWS V14.00,2013-02-19 23:26:00,
2013-02-19 18:31:00,53.5,43.6,30.00,West,277,0.0,0.0,69,0.00,,---,0.26,VWS V14.00,2013-02-19 23:31:00,
2013-02-19 18:36:00,53.0,43.1,30.00,West,277,0.0,0.0,69,0.00,,---,0.26,VWS V14.00,2013-02-19 23:36:00,
2013-02-19 18:41:00,52.6,43.1,30.00,West,277,0.0,1.0,70,0.00,,---,0.26,VWS V14.00,2013-02-19 23:41:00,
2013-02-19 18:46:00,52.1,43.0,30.00,West,277,0.0,1.0,71,0.00,,---,0.26,VWS V14.00,2013-02-19 23:46:00,
2013-02-19 18:51:00,51.5,42.8,30.00,West,277,0.0,1.0,72,0.00,,---,0.26,VWS V14.00,2013-02-19 23:51:00,
2013-02-19 18:56:00,51.0,42.7,30.00,West,277,0.0,1.0,73,0.00,,---,0.26,VWS V14.00,2013-02-19 23:56:00,
2013-02-19 19:01:00,50.4,42.4,30.00,West,277,0.0,0.0,74,0.00,,---,0.26,VWS V14.00,2013-02-20 00:01:00,
2013-02-19 19:06:00,49.9,42.3,30.00,West,277,0.0,0.0,75,0.00,,---,0.26,VWS V14.00,2013-02-20 00:06:00,
2013-02-19 19:11:00,49.4,42.2,30.00,West,277,0.0,1.0,76,0.00,,---,0.26,VWS V14.00,2013-02-20 00:11:00,
2013-02-19 19:16:00,49.0,41.4,30.00,West,277,0.0,1.0,75,0.00,,---,0.26,VWS V14.00,2013-02-20 00:16:00,
2013-02-19 19:21:00,48.7,41.8,30.01,West,277,0.0,1.0,77,0.00,,---,0.26,VWS V14.00,2013-02-20 00:21:00,
2013-02-19 19:26:00,48.4,41.5,30.01,West,277,0.0,1.0,77,0.00,,---,0.26,VWS V14.00,2013-02-20 00:26:00,
2013-02-19 19:31:00,48.1,41.2,30.01,West,277,0.0,0.0,77,0.00,,---,0.26,VWS V14.00,2013-02-20 00:31:00,
2013-02-19 19:36:00,47.8,41.0,30.01,West,277,0.0,1.0,77,0.00,,---,0.26,VWS V14.00,2013-02-20 00:36:00,
2013-02-19 19:41:00,47.6,40.8,30.01,West,277,0.0,1.0,77,0.00,,---,0.26,VWS V14.00,2013-02-20 00:41:00,
2013-02-19 19:46:00,47.6,40.4,30.02,West,277,0.0,4.0,76,0.00,,---,0.26,VWS V14.00,2013-02-20 00:46:00,
2013-02-19 19:51:00,47.9,40.4,30.02,NNW,335,5.0,6.0,75,0.00,,---,0.26,VWS V14.00,2013-02-20 00:51:00,
2013-02-19 19:56:00,48.8,39.8,30.03,NW,316,2.0,9.0,71,0.00,,---,0.26,VWS V14.00,2013-02-20 00:56:00,
2013-02-19 20:01:00,49.6,40.2,30.03,NW,321,1.0,7.0,70,0.00,,---,0.26,VWS V14.00,2013-02-20 01:01:00,
2013-02-19 20:06:00,49.9,39.8,30.03,NW,318,5.0,7.0,68,0.00,,---,0.26,VWS V14.00,2013-02-20 01:06:00,
2013-02-19 20:11:00,50.0,38.7,30.03,NW,319,0.0,7.0,65,0.00,,---,0.26,VWS V14.00,2013-02-20 01:11:00,
2013-02-19 20:16:00,50.0,37.9,30.03,WNW,294,0.0,7.0,63,0.00,,---,0.26,VWS V14.00,2013-02-20 01:16:00,
2013-02-19 20:20:00,50.0,37.5,30.03,NW,312,0.0,7.0,62,0.00,,---,0.26,VWS V14.00,2013-02-20 01:20:00,
2013-02-19 20:25:00,50.0,36.7,30.03,NW,315,2.0,9.0,60,0.00,,---,0.26,VWS V14.00,2013-02-20 01:25:00,
2013-02-19 20:30:00,49.9,36.6,30.03,NW,316,2.0,5.0,60,0.00,,---,0.26,VWS V14.00,2013-02-20 01:30:00,
2013-02-19 20:36:00,49.8,36.5,30.03,NW,314,4.0,5.0,60,0.00,,---,0.26,VWS V14.00,2013-02-20 01:36:00,
2013-02-19 20:41:00,49.6,35.5,30.03,NW,311,1.0,6.0,58,0.00,,---,0.26,VWS V14.00,2013-02-20 01:41:00,
2013-02-19 20:46:00,49.4,35.7,30.03,NW,305,4.0,6.0,59,0.00,,---,0.26,VWS V14.00,2013-02-20 01:46:00,
2013-02-19 20:51:00,49.3,35.2,30.03,NW,314,1.0,7.0,58,0.00,,---,0.26,VWS V14.00,2013-02-20 01:51:00,
2013-02-19 20:56:00,49.1,35.0,30.04,NW,315,0.0,7.0,58,0.00,,---,0.26,VWS V14.00,2013-02-20 01:56:00,
2013-02-19 21:01:00,48.9,34.8,30.04,WNW,298,0.0,7.0,58,0.00,,---,0.26,VWS V14.00,2013-02-20 02:01:00,
2013-02-19 21:06:00,48.7,34.6,30.04,NW,315,0.0,7.0,58,0.00,,---,0.26,VWS V14.00,2013-02-20 02:06:00,
2013-02-19 21:11:00,48.5,34.0,30.05,NW,321,0.0,7.0,57,0.00,,---,0.26,VWS V14.00,2013-02-20 02:11:00,
2013-02-19 21:16:00,48.3,33.8,30.05,NW,316,0.0,7.0,57,0.00,,---,0.26,VWS V14.00,2013-02-20 02:16:00,
2013-02-19 21:21:00,48.1,33.6,30.05,NW,315,2.0,7.0,57,0.00,,---,0.26,VWS V14.00,2013-02-20 02:21:00,
2013-02-19 21:26:00,48.0,33.1,30.05,NW,314,1.0,7.0,56,0.00,,---,0.26,VWS V14.00,2013-02-20 02:26:00,
2013-02-19 21:31:00,47.9,32.5,30.05,NW,312,0.0,7.0,55,0.00,,---,0.26,VWS V14.00,2013-02-20 02:31:00,
2013-02-19 21:36:00,47.9,32.1,30.05,NW,320,5.0,8.0,54,0.00,,---,0.26,VWS V14.00,2013-02-20 02:36:00,
2013-02-19 21:40:00,47.8,32.0,30.05,NW,304,1.0,8.0,54,0.00,,---,0.26,VWS V14.00,2013-02-20 02:40:00,
2013-02-19 21:45:00,47.8,32.0,30.05,NW,325,2.0,8.0,54,0.00,,---,0.26,VWS V14.00,2013-02-20 02:45:00,
2013-02-19 21:50:00,47.6,31.8,30.05,WNW,301,2.0,8.0,54,0.00,,---,0.26,VWS V14.00,2013-02-20 02:50:00,
2013-02-19 21:55:00,47.5,31.2,30.05,NW,317,2.0,8.0,53,0.00,,---,0.26,VWS V14.00,2013-02-20 02:55:00,
2013-02-19 22:00:00,47.3,31.0,30.05,NW,311,5.0,6.0,53,0.00,,---,0.26,VWS V14.00,2013-02-20 03:00:00,
2013-02-19 22:05:00,47.1,30.4,30.06,NW,317,7.0,7.0,52,0.00,,---,0.26,VWS V14.00,2013-02-20 03:05:00,
2013-02-19 22:10:00,47.0,29.8,30.06,NNW,347,1.0,9.0,51,0.00,,---,0.26,VWS V14.00,2013-02-20 03:10:00,
2013-02-19 22:15:00,47.1,29.9,30.06,NW,319,5.0,12.0,51,0.00,,---,0.26,VWS V14.00,2013-02-20 03:15:00,
2013-02-19 22:21:00,47.2,29.5,30.06,NW,309,1.0,12.0,50,0.00,,---,0.26,VWS V14.00,2013-02-20 03:21:00,
2013-02-19 22:25:00,47.1,29.4,30.06,NW,321,0.0,12.0,50,0.00,,---,0.26,VWS V14.00,2013-02-20 03:25:00,
2013-02-19 22:30:00,47.0,29.3,30.07,NW,313,2.0,8.0,50,0.00,,---,0.26,VWS V14.00,2013-02-20 03:30:00,
2013-02-19 22:35:00,46.9,29.2,30.07,WNW,298,2.0,9.0,50,0.00,,---,0.26,VWS V14.00,2013-02-20 03:35:00,
2013-02-19 22:40:00,46.7,29.1,30.07,NNW,344,0.0,9.0,50,0.00,,---,0.26,VWS V14.00,2013-02-20 03:40:00,
2013-02-19 22:45:00,46.5,28.4,30.07,NW,319,0.0,9.0,49,0.00,,---,0.26,VWS V14.00,2013-02-20 03:45:00,
2013-02-19 22:50:00,46.4,28.3,30.07,NNW,327,2.0,9.0,49,0.00,,---,0.26,VWS V14.00,2013-02-20 03:50:00,
2013-02-19 22:55:00,46.3,28.2,30.07,NW,323,2.0,9.0,49,0.00,,---,0.26,VWS V14.00,2013-02-20 03:55:00,
2013-02-19 23:00:00,46.2,27.6,30.07,NW,306,0.0,8.0,48,0.00,,---,0.26,VWS V14.00,2013-02-20 04:00:00,
2013-02-19 23:05:00,46.2,27.6,30.07,NW,323,7.0,8.0,48,0.00,,---,0.26,VWS V14.00,2013-02-20 04:05:00,
2013-02-19 23:10:00,46.1,27.5,30.07,NW,325,0.0,8.0,48,0.00,,---,0.26,VWS V14.00,2013-02-20 04:10:00,
2013-02-19 23:15:00,46.0,27.4,30.07,NW,306,2.0,8.0,48,0.00,,---,0.26,VWS V14.00,2013-02-20 04:15:00,
2013-02-19 23:20:00,45.9,27.3,30.07,NNW,333,2.0,9.0,48,0.00,,---,0.26,VWS V14.00,2013-02-20 04:20:00,
2013-02-19 23:25:00,45.7,27.1,30.07,NW,304,1.0,9.0,48,0.00,,---,0.26,VWS V14.00,2013-02-20 04:25:00,
2013-02-19 23:30:00,45.6,27.1,30.07,NNW,343,2.0,8.0,48,0.00,,---,0.26,VWS V14.00,2013-02-20 04:30:00,
2013-02-19 23:35:00,45.5,27.0,30.07,NW,306,0.0,9.0,48,0.00,,---,0.26,VWS V14.00,2013-02-20 04:35:00,
2013-02-19 23:40:00,45.3,26.8,30.07,NW,305,1.0,9.0,48,0.00,,---,0.26,VWS V14.00,2013-02-20 04:40:00,
2013-02-19 23:45:00,45.1,26.6,30.08,NW,313,4.0,9.0,48,0.00,,---,0.26,VWS V14.00,2013-02-20 04:45:00,
2013-02-19 23:50:00,45.0,27.0,30.08,NW,315,2.0,9.0,49,0.00,,---,0.26,VWS V14.00,2013-02-20 04:50:00,
2013-02-19 23:55:00,44.8,26.8,30.08,NW,317,2.0,9.0,49,0.00,,---,0.26,VWS V14.00,2013-02-20 04:55:00,